Weather in Liptovsky Mikulas

Slovakia     49°05′06″N   19°36′37″E
temp.,
°C
wind,
m/s
gust,
m/s
humid.,
%
clouds,
%
prec.,
mm/h
press.,
hPa
HPBL,
m
10 may, mon
mon1023:00+5sse34965 0.0 102258
02:00+4sse34965 0.0 102163
05:00+4sse349455 0.0 102059
08:00+11sse35635 0.0 1018396
11:00+16sse36430 0.0 1017920
14:00+18s464329 0.0 10161246
17:00+18sse354849 0.0 10161133
20:00+11sse2388100 0.0 101747
11 may, tue
tue1123:00+9se23967 0.0 101744
02:00+8se23975 0.0 101748
05:00+8sse33975 0.0 101655
08:00+14sse34730 0.0 1014334
11:00+19s36470 0.0 10131141
14:00+21sse46410 0.0 10121410
17:00+19sse35470 0.0 10111255
20:00+13sse22865 0.0 101132
12 may, wed
wed1223:00+10sse22955 0.0 101232
02:00+10se22970 0.0 101125
05:00+9se21960 0.0 100918
08:00+15sse12720 0.0 1008384
11:00+21nnw024515 0.1 10061900
14:00+16s237483 1.1 1005288
17:00+16sse127926 4.6 1004576
20:00+11sse229395 7.9 100421
13 may, thu
thu1323:00+9se119681 0.2 100313
02:00+8s1196100 0.5 100214
05:00+9sse1299100 1.8 100181
08:00+9sw1297100 6.8 1001175
11:00+9sw1196100 1.2 1002178
14:00+9wsw1294100 2.3 1002338
17:00+11wsw238382 1.0 1002825
20:00+8sw2291100 1.4 100341
14 may, fri
fri1423:00+5sw2295100 0.0 100531
02:00+4sw229676 0.0 100648
05:00+5sw2294100 0.1 1006108
08:00+5sw2492100 0.1 1008620
11:00+6wsw2682100 0.1 1009984
14:00+9wsw267198 0.1 10101011
17:00+10w136771 0.1 1009829
20:00+8ssw118561 0.1 101011